Regional Weather Roundup
Issued by NWS

Home | Current Version | Previous Version | Graphics & Text | Print | Product List | Glossary On
Versions: 1 2 3 4 5 6 7 8 9 10 11 12 13 14 15 16 17 18 19 20 21 22 23 24 25 26 27 28 29 30 31 32 33 34 35 36 37 38 39 40 41 42 43 44 45 46 47 48 49 50
000
ASUS43 KFSD 281310
RWRSD

WEATHER ROUNDUP FOR SOUTH DAKOTA
NATIONAL WEATHER SERVICE SIOUX FALLS SD
800 AM CDT TUE JUL 28 2015

NOTE: "FAIR" INDICATES FEW OR NO CLOUDS BELOW 12,000 FEET WITH NO
SIGNIFICANT WEATHER AND/OR OBSTRUCTIONS TO VISIBILITY.


SDZ001>005-009-010-012>017-281400-
NORTHWEST AND NORTH CENTRAL SOUTH DAKOTA

CITY           SKY/WX    TMP DP  RH WIND       PRES   REMARKS
FAITH            N/A     59  46  62 W25G35    29.87R
MOBRIDGE       MOSUNNY   63  55  75 NW16      29.78R
$$

SDZ012>016-024>037-041>051-057-063-072>074-281400-
SOUTHWEST AND SOUTH CENTRAL SOUTH DAKOTA

CITY           SKY/WX    TMP DP  RH WIND       PRES   REMARKS
RAPID CTY ARPT SUNNY     59  46  62 NW6       29.97S
PIERRE         SUNNY     62  53  72 W22G31    29.85R
CUSTER         SUNNY     52  38  58 NW9       30.04R
ELLSWORTH AFB  SUNNY     59  45  60 W10       29.96S
PHILIP         SUNNY     61  50  67 W16G23    29.91R
PINE RIDGE     SUNNY     55  47  74 SW12      30.01R
SPEARFISH      FAIR      55  41  58 W18G24    30.01R
WINNER         FAIR      63  55  75 NW15      29.88R
$$

SDZ004>011-016>023-039-040-281400-
NORTHEAST SOUTH DAKOTA

CITY           SKY/WX    TMP DP  RH WIND       PRES   REMARKS
ABERDEEN       MOSUNNY   68  63  84 W13       29.76R
WATERTOWN      CLOUDY    69  66  90 SW12      29.79R
BROOKINGS      CLOUDY    68  63  83 S10       29.82R
$$

SDZ017-020-022-023-036>040-048>070-281400-
SOUTHEAST SOUTH DAKOTA

CITY           SKY/WX    TMP DP  RH WIND       PRES   REMARKS
SIOUX FALLS    CLOUDY    71  66  84 S16       29.84R
HURON          PTSUNNY   69  67  93 CALM      29.79R
CHAMBERLAIN    SUNNY     63  59  87 W18G24    29.85R
MITCHELL       CLOUDY    70  68  93 S6        29.82R
YANKTON        CLOUDY    70  66  88 MISG      29.84R
$$

ABBREVIATIONS USED IN REMARKS
   TC - TEMPERATURE IN CELSIUS
  WCI - WIND CHILL INDEX
   HX - HEAT INDEX
  VSB - VISIBILITY




USA.gov is the U.S. government's official web portal to all federal, state and local government web resources and services.